Weather Service Report


868 
ASCA42 TJSJ 290911
RWRPR 
PUERTO RICO/U.S. VIRGIN ISLANDS HOURLY WEATHER ROUNDUP
NATIONAL WEATHER SERVICE SAN JUAN PR
500 AM AST TUE JUL 29 2014

PRZ001-004-291000-
PUERTO RICO
  
CITY           SKY/WX    TMP DP  RH WIND       PRES   REMARKS
SAN JUAN LMM   PTCLDY    81  73  78 SE3       30.02R                  
CEIBA          MOCLDY    81  73  78 SE5       30.04R                  
$$

PRZ006-007-291000-
U.S. VIRGIN ISLANDS
  
CITY           SKY/WX    TMP DP  RH WIND       PRES   REMARKS
CHARLOTTE AMA  CLEAR     81  73  78 E7        30.01S                  
CHRISTIANSTED  PTCLDY    79  72  78 E7        30.02R                  
$$

HOURLY WEATHER ROUNDUP FOR THE NEWS MEDIA
  
CITY           SKY/WX    TMP DP  RH WIND       PRES   REMARKS
MIAMI          MOCLDY    81  73  76 SW5       29.99S                  
ORLANDO        CLEAR     81  76  84 W9        29.93S                  
NEW YORK       PTCLDY    66  53  63 NW14      29.78R                  
NEWARK         PTCLDY    65  53  65 NW9G17    29.78R                  
CHICAGO        CLEAR     61  51  70 NW5       30.03S                  
HARTFORD       CLEAR     64  60  87 SW5       29.69R                  
BOSTON         PTCLDY    65  57  75 W10       29.67R                  
DALLAS         PTCLDY    77  59  53 CALM      30.10S                  
PHILADELPHIA   CLEAR     66  55  67 NW10      29.84R                  

Return to Home page


Western Regional Climate Center, wrcc@dri.edu